Location: Riverton
(43.0250°N, 108.3790°W)
Time: 10:41:17
(UTC-07:00)

Daily predictions for brighter satellites

Satellite Brightness Start Highest point End
(mag) Time Altitude Azimuth Time Altitude Azimuth Time Altitude Azimuth
Cosmos 2341 Rocket 4.0 17:01:32 10° N 17:07:43 65° E 17:13:53 10° SSE
Cosmos 1269 Rocket 4.0 17:02:27 10° NNW 17:07:47 78° ENE 17:13:06 10° SSE
Cosmos 1606 4.0 17:06:58 10° SSW 17:10:44 45° WNW 17:14:31 10° N
IRS-1A Rocket 4.3 17:05:14 10° SSE 17:10:45 86° ENE 17:16:17 10° NNW
Cosmos 1536 2.9 17:06:53 10° N 17:10:54 59° E 17:14:55 10° SSE
ATLAS 2AS CENTAUR R/B 3.3 17:03:42 10° NNW 17:11:30 46° NE 17:18:52 10° ESE
ASTEX 1 4.2 17:09:46 10° N 17:14:41 57° W 17:19:34 10° SSW
Cosmos 2251 Rocket 4.2 17:13:48 10° N 17:18:36 32° ENE 17:23:20 10° ESE
ISS -2.6 17:15:36 10° SSW 17:18:43 42° SE 17:21:48 10° ENE
Cosmos 2263 Rocket 3.3 17:15:15 10° SW 17:20:33 43° WNW 17:25:57 10° NNE
Cosmos 1633 3.0 17:18:34 10° NNW 17:22:09 64° W 17:25:41 10° S
Meteor 1-11 Rocket 4.3 17:19:12 10° NNW 17:24:42 63° W 17:30:07 10° S
Cosmos 1461 4.5 17:23:16 10° NW 17:26:57 37° WSW 17:30:37 10° S
SL-27 R/B 3.2 17:24:24 10° N 17:27:46 33° ENE 17:31:06 10° SE
Cosmos 1812 3.8 17:28:47 10° SE 17:31:59 25° E 17:35:12 10° NNE
Okean 1 Rocket 4.2 17:29:02 10° NNW 17:33:13 47° W 17:37:22 10° SSW
SJ-12 3.8 17:31:12 10° SSE 17:35:17 80° ENE 17:39:25 10° N
MSX 3.9 17:31:05 10° SE 17:36:39 53° ENE 17:42:14 10° N
CZ-4 R/B 1.6 17:33:17 10° S 17:37:29 80° WSW 17:41:40 10° NNW
Okean 3 4.1 17:34:28 10° SSW 17:38:43 61° W 17:42:58 10° N
COSMO-SKYMED 1 3.6 17:35:09 10° NE 17:38:48 26° E 17:42:27 10° SSE
Cosmos 1544 Rocket 3.7 17:35:16 10° N 17:39:37 50° ENE 17:43:57 10° SSE
Cosmos 158 Rocket 4.1 17:37:13 10° NNW 17:42:37 84° WSW 17:47:53 10° SSE
Cosmos 1975 Rocket 3.1 17:39:17 10° S 17:43:35 80° W 17:47:56 10° N
Cosmos 1844 Rocket 2.6 17:41:11 10° SSW 17:46:44 73° ESE 17:52:21 10° NNE
CZ-2C R/B 2.5 17:42:32 10° SSE 17:47:28 85° WSW 17:52:37 10° NNW
GEOS 3 Rocket 3.8 17:43:44 10° ESE 17:48:38 48° NE 17:53:33 10° NNW
Cosmos 1238 Rocket 2.4 17:48:08 10° SSE 17:50:58 43° E 17:53:00 17° NNE
Cosmos 1975 3.5 17:48:21 10° N 17:52:05 33° ENE 17:55:45 10° SE
Meteor 1-12 Rocket 4.4 17:48:39 10° N 17:54:18 54° ENE 18:00:01 10° SSE
Cosmos 1844 3.6 17:51:43 10° SSW 17:57:12 66° ESE 18:02:20 12° NNE
Cosmos 1536 Rocket 3.8 17:55:51 10° SSE 18:00:07 48° E 18:04:27 10° NNE
COSMOS 2441 4.3 17:58:05 10° SSE 18:02:55 74° ENE 18:07:49 10° N
SL-24 DEB 4.3 18:00:47 10° NNE 18:05:31 61° E 18:10:09 10° S
SMAP 3.9 18:02:31 10° S 18:07:03 53° W 18:11:38 10° NNW
YAOGAN 1 3.4 18:02:59 10° S 18:07:13 54° W 18:11:29 10° NNW
SPOT 3 Rocket 4.4 18:02:17 10° S 18:07:21 54° W 18:12:27 10° NNW
ASTRO F (AKARI) 4.4 18:07:38 13° N 18:10:21 73° WNW 18:13:28 10° SSW
Cosmos 2278 Rocket 2.3 18:09:25 10° S 18:14:55 56° ESE 18:18:28 22° NE
Abrixas 3.7 18:13:11 10° WNW 18:15:44 27° N 18:15:44 27° N
OTV 4 3.1 18:17:39 10° WSW 18:19:36 16° SSW 18:21:18 11° SSE
FALCON 9 R/B 4.1 17:56:27 10° WSW 18:21:13 49° S 18:26:28 21° ESE
Cosmos 1484 Rocket 2.7 18:18:42 10° S 18:22:28 82° WSW 18:26:14 10° NNW
IDEFIX/ARIANE 42P 3.9 18:19:01 10° SSW 18:23:55 41° W 18:28:49 10° NNW
Genesis I 4.1 18:23:08 10° NNW 18:26:00 33° NNE 18:26:00 33° NNE
SKYMED 2 3.5 18:23:25 15° NNE 18:27:03 86° ESE 18:31:24 10° SSW
Cosmos 2366 rocket 4.3 18:22:51 10° NNW 18:29:11 69° W 18:35:25 10° S
Cosmos 1455 Rocket 3.6 18:25:00 10° NNW 18:29:19 59° W 18:33:40 10° S
BREEZE M DEB (TANK) 2.9 18:23:57 10° SW 18:31:55 48° SSE 18:32:37 42° ESE
USA 234 4.1 18:32:50 20° NNE 18:36:52 41° NNW 18:42:52 10° W
Cosmos 2082 Rocket 2.4 18:33:52 10° NNW 18:39:18 44° ENE 18:39:42 44° ENE
Timation 2 Rocket 4.2 18:34:04 10° NNW 18:40:46 57° ENE 18:44:53 25° SE
Cosmos 1934 Rocket 4.5 18:37:11 10° N 18:50:54 - SSE 18:41:47 37° NE
Cosmos 1833 Rocket 3.1 18:39:46 10° NNW 18:44:32 41° NE 18:44:32 41° NE
Cosmos 1500 3.4 18:42:40 10° NNW 18:46:29 69° W 18:50:18 10° S
SL-8 R/B 3.6 18:41:52 10° SW 18:46:36 67° SSE 18:47:02 63° ESE
NOSS 3-4 (A) 4.4 18:40:44 10° NNW 18:46:59 35° NE 18:47:19 34° NE
NOSS 3-4 (C) 4.4 18:40:51 10° NNW 18:47:05 34° NE 18:47:23 34° NE
Okean 1 4.0 18:43:50 10° SSW 18:47:48 53° W 18:50:17 21° N
BREEZE M DEB (TANK) 3.5 18:45:00 10° WNW 18:48:39 57° NNE 18:50:35 42° ENE
Meteor 1-28 Rocket 3.3 18:50:05 72° SSW 18:50:05 72° SSW 18:53:30 10° SSW
NOSS 3-3 (A) 3.9 18:48:22 10° SW 18:54:34 89° NW 18:57:10 40° NE
NOSS 3-3 (C) 3.9 18:48:28 10° SW 18:54:40 90° WNW 18:57:14 40° NE
ISS -1.5 18:52:16 10° W 18:54:29 28° NW 18:54:29 28° NW
Cosmos 2239 Rocket 4.3 18:50:05 10° N 18:56:17 65° E 19:02:24 10° SSE
Cosmos 375 4.5 18:52:37 10° NW 18:57:03 72° SW 18:57:07 71° SW
NOAA 12 4.1 18:51:59 10° SSE 18:57:17 84° WSW 19:02:35 10° NNW
METEOR-M 4.0 18:52:58 10° SSE 18:58:19 85° ENE 19:03:41 10° NNW
ATLAS 2AS CENTAUR R/B 3.8 18:54:58 10° NW 19:02:40 50° WSW 19:09:50 10° S
Cosmos 1821 Rocket 3.8 18:58:36 10° N 19:04:43 72° E 19:10:47 10° SSE
Cosmos 1346 Rocket 3.7 19:04:49 10° SSW 19:08:21 47° W 19:08:21 47° W
COSMO-SKYMED 1 4.4 19:12:01 15° NNW 19:14:56 29° WNW 19:18:42 10° SW
CZ-3B DEB 3.3 19:16:09 10° W 19:20:58 56° NNW 19:24:12 39° NNE
SL-24 R/B - RUBIN 2 4.4 19:23:13 10° SW 19:29:33 84° NW 19:29:43 83° NNW
Cosmos 2297 4.3 19:36:48 10° SW 19:41:27 53° WSW 19:41:27 53° WSW
Cosmos 2278 Rocket 4.0 19:54:48 10° WSW 19:59:22 25° NW 20:00:22 23° NW
Cosmos 2082 Rocket 4.2 20:18:24 10° NW 20:21:38 25° WNW 20:21:38 25° WNW
